AIB280 VHHH-VHHX

Flight info

Callsign AIB280
Flight time 0h 17m
Altitude 6000
Route RAMEN DCT CH/N0270F050
Aircraft A359/H-SDE2E3GHIJ3J4J5LM1ORWXY/LB1D1

Departure

Time 2026-05-05 05:16
Airport Hong Kong International Airport (VHHH)

Arrival

Time 2026-05-05 05:34
Airport Hong Kong International Airport Kai Tak (VHHX)
Time Latitude Longitude Altitude Speed Heading
2026-05-05 05:12 22.31508 113.92210 41 ft 0 kts 126°
2026-05-05 05:14 22.31462 113.92201 42 ft 14 kts 213°
2026-05-05 05:14 22.31431 113.92078 42 ft 24 kts 279°
2026-05-05 05:14 22.31482 113.91970 42 ft 18 kts 297°
2026-05-05 05:15 22.31476 113.91845 42 ft 20 kts 256°
2026-05-05 05:15 22.31417 113.91656 42 ft 36 kts 250°
2026-05-05 05:15 22.31436 113.91433 40 ft 29 kts 323°
2026-05-05 05:15 22.31572 113.91366 42 ft 0 kts
2026-05-05 05:16 22.31622 113.91433 42 ft 31 kts 69°
2026-05-05 05:16 22.31823 113.92069 53 ft 148 kts 70°
2026-05-05 05:16 22.32205 113.93269 690 ft 172 kts 71°
2026-05-05 05:16 22.32554 113.94406 1287 ft 147 kts 74°
2026-05-05 05:17 22.32835 113.95485 1032 ft 156 kts 79°
2026-05-05 05:17 22.32718 113.96543 931 ft 141 kts 111°
2026-05-05 05:17 22.32081 113.97365 1146 ft 159 kts 145°
2026-05-05 05:17 22.31026 113.98064 1833 ft 198 kts 147°
2026-05-05 05:18 22.29798 113.98922 2576 ft 209 kts 146°
2026-05-05 05:18 22.28694 113.99830 3322 ft 188 kts 138°
2026-05-05 05:18 22.28367 114.01070 3917 ft 176 kts 82°
2026-05-05 05:18 22.28743 114.02422 3885 ft 200 kts 69°
2026-05-05 05:19 22.29288 114.03809 4008 ft 190 kts 68°
2026-05-05 05:19 22.29778 114.04980 4258 ft 147 kts 67°
2026-05-05 05:19 22.30157 114.05834 4496 ft 125 kts 66°
2026-05-05 05:19 22.30624 114.06857 4405 ft 168 kts 66°
2026-05-05 05:20 22.31093 114.08087 4025 ft 176 kts 71°
2026-05-05 05:20 22.31474 114.09278 3816 ft 161 kts 73°
2026-05-05 05:20 22.31808 114.10379 3560 ft 152 kts 74°
2026-05-05 05:20 22.32099 114.11411 3463 ft 132 kts 78°
2026-05-05 05:21 22.32282 114.12424 2744 ft 157 kts 82°
2026-05-05 05:21 22.32455 114.13690 1954 ft 169 kts 83°
2026-05-05 05:21 22.32628 114.14882 1522 ft 157 kts 81°
2026-05-05 05:21 22.32826 114.16005 1177 ft 146 kts 78°
2026-05-05 05:22 22.33027 114.17061 813 ft 140 kts 77°
2026-05-05 05:22 22.33092 114.18115 427 ft 140 kts 90°
2026-05-05 05:22 22.32716 114.19035 156 ft 137 kts 128°
2026-05-05 05:22 22.32069 114.19707 62 ft 123 kts 127°
2026-05-05 05:23 22.31551 114.20348 43 ft 103 kts 134°
2026-05-05 05:23 22.30884 114.21093 249 ft 173 kts 131°
2026-05-05 05:23 22.29888 114.21889 1038 ft 185 kts 151°
2026-05-05 05:23 22.28667 114.22252 1675 ft 182 kts 173°
2026-05-05 05:24 22.27415 114.21976 2206 ft 189 kts 202°
2026-05-05 05:24 22.26526 114.21017 2548 ft 191 kts 260°
2026-05-05 05:24 22.26552 114.19543 2233 ft 206 kts 282°
2026-05-05 05:24 22.27146 114.18107 1898 ft 214 kts 302°
2026-05-05 05:25 22.28035 114.16813 1826 ft 211 kts 310°
2026-05-05 05:25 22.29137 114.15912 1890 ft 192 kts 340°
2026-05-05 05:25 22.30346 114.15316 1702 ft 188 kts 343°
2026-05-05 05:25 22.31584 114.15325 1509 ft 172 kts 22°
2026-05-05 05:26 22.32538 114.15989 1276 ft 162 kts 49°
2026-05-05 05:26 22.33001 114.17093 916 ft 159 kts 71°
2026-05-05 05:26 22.33133 114.18225 617 ft 151 kts 99°
2026-05-05 05:26 22.32552 114.19205 217 ft 158 kts 129°
2026-05-05 05:27 22.31828 114.20043 44 ft 140 kts 135°
2026-05-05 05:27 22.31257 114.20680 44 ft 101 kts 135°
2026-05-05 05:27 22.29548 114.22364 1008 ft 212 kts 153°
2026-05-05 05:28 22.28116 114.22254 2497 ft 231 kts 197°
2026-05-05 05:28 22.26644 114.21016 2417 ft 307 kts 234°
2026-05-05 05:28 22.26065 114.18645 2590 ft 357 kts 271°
2026-05-05 05:28 22.27133 114.16213 2962 ft 353 kts 316°
2026-05-05 05:29 22.29054 114.15045 3766 ft 290 kts 341°
2026-05-05 05:29 22.30937 114.14416 2348 ft 286 kts 349°
2026-05-05 05:29 22.32740 114.14012 2149 ft 235 kts 22°
2026-05-05 05:29 22.33582 114.15244 1334 ft 221 kts 88°
2026-05-05 05:30 22.33483 114.16329 997 ft 215 kts 104°
2026-05-05 05:30 22.33124 114.17836 697 ft 197 kts 104°
2026-05-05 05:30 22.32626 114.19126 299 ft 178 kts 120°
2026-05-05 05:30 22.31820 114.20053 44 ft 149 kts 135°
2026-05-05 05:31 22.30992 114.20958 228 ft 202 kts 132°
2026-05-05 05:31 22.29752 114.21872 1046 ft 222 kts 161°
2026-05-05 05:31 22.28305 114.21800 1856 ft 205 kts 205°
2026-05-05 05:31 22.27494 114.20635 2572 ft 199 kts 257°
2026-05-05 05:32 22.27721 114.19127 2798 ft 221 kts 290°
2026-05-05 05:32 22.28392 114.17554 2516 ft 235 kts 303°
2026-05-05 05:32 22.29533 114.16429 2681 ft 216 kts 345°
2026-05-05 05:32 22.31008 114.16484 2051 ft 225 kts 19°
2026-05-05 05:33 22.32491 114.17159 1270 ft 224 kts 39°
2026-05-05 05:33 22.33049 114.18544 697 ft 203 kts 105°
2026-05-05 05:33 22.32112 114.19673 46 ft 203 kts 122°
2026-05-05 05:33 22.31395 114.20502 44 ft 77 kts 130°
2026-05-05 05:34 22.31276 114.20680 44 ft 9 kts 86°
2026-05-05 05:34 22.31304 114.20728 44 ft 4 kts 24°
2026-05-05 05:34 22.31352 114.20708 44 ft 19 kts 327°
2026-05-05 05:34 22.31494 114.20566 44 ft 11 kts 314°
2026-05-05 05:35 22.31497 114.20563 44 ft 0 kts 314°
2026-05-05 05:35 22.31574 114.20477 44 ft 63 kts 314°
2026-05-05 05:35 22.32008 114.19993 44 ft 57 kts 313°
2026-05-05 05:35 22.32195 114.19783 44 ft 22 kts 307°
2026-05-05 05:36 22.32285 114.19677 36 ft 19 kts 313°